Overview Statistics Trail Chart Weather Telemetry Raw packets
 

This is the latest recevied weather packets stored in our database for station/object VE6HFD-WX. If no packets are shown the sender has not sent any weather packets the latest 10 day(s).

<< 75 76 77 78 79 80 81 >>
Time Temp. Humidity Pressure Rain* Wind** Luminosity Snow
1777481350 10° C 41% 1022.7 hPa 0 mm - - -
1777481050 10° C 42% 1022.7 hPa 0 mm - - -
1777480720 9.44° C 44% 1022.7 hPa 0 mm - - -
1777480420 9.44° C 45% 1022.8 hPa 0 mm - - -
1777480090 8.89° C 47% 1022.8 hPa 0 mm - - -
1777479760 8.89° C 48% 1022.8 hPa 0 mm - - -
1777479430 8.33° C 49% 1022.8 hPa 0 mm - - -
1777479130 8.33° C 50% 1022.9 hPa 0 mm - - -
1777478830 8.33° C 49% 1022.9 hPa 0 mm - - -
1777478500 8.33° C 51% 1022.9 hPa 0 mm - - -
1777478170 7.78° C 50% 1022.9 hPa 0 mm - - -
1777477870 7.78° C 52% 1022.9 hPa 0 mm - - -
1777477540 7.22° C 55% 1022.9 hPa 0 mm - - -
1777477210 7.22° C 56% 1023 hPa 0 mm - - -
1777476880 6.67° C 57% 1023 hPa 0 mm - - -
1777476580 6.11° C 57% 1023 hPa 0 mm - - -
1777476250 6.11° C 59% 1023 hPa 0 mm - - -
1777475950 5.56° C 60% 1023.1 hPa 0 mm - - -
1777475620 5.56° C 60% 1023.1 hPa 0 mm - - -
1777475320 5.56° C 60% 1023.1 hPa 0 mm - - -
1777474990 5.56° C 62% 1023.1 hPa 0 mm - - -
1777474690 5° C 64% 1023.1 hPa 0 mm - - -
1777474360 4.44° C 69% 1023.1 hPa 0 mm - - -
1777474060 3.89° C 71% 1023.1 hPa 0 mm - - -
1777473730 3.33° C 72% 1023.1 hPa 0 mm - - -

* Rain latest hour (hover to see other rain measurements)
** Current wind speed in m/s (hover to see current wind gust speed)